Hollywood, FL

11:56 PM EDT on June 25, 2017 (GMT -0400)
North Perry

Weather History for KHWO - March, 2013

Change the Weather History Date:

Thursday, March 28, 2013

  Actual Average (KFLL) Record (KFLL)
Temperature  
Mean Temperature 62 °F -  
Max Temperature 75 °F 79 °F 91 °F (1948)
Min Temperature 51 °F 64 °F 49 °F (1915)
Degree Days  
Heating Degree Days 3    
Growing Degree Days 12 (Base 50)    
Moisture  
Dew Point 42 °F    
Average Humidity 50    
Maximum Humidity 77    
Minimum Humidity 23    
Precipitation  
Precipitation 0.00 in - - ()
Sea Level Pressure  
Sea Level Pressure 30.24 in    
Wind  
Wind Speed 7 mph (North)    
Max Wind Speed 15 mph    
Max Gust Speed 16 mph    
Visibility 10 miles    
Events      
Averages and records for this station are not official NWS values.
T = Trace of Precipitation, MM = Missing Value Source: NWS Daily Summary

Daily Weather History Graph

Daily Weather History Graph

Search for Another Location

Airport or City:

Trip Planner

Search our weather history database for the weather conditions in past years. The results will help you decide how hot, cold, wet, or windy it might be!

Date:

Astronomy

Mar. 28, 2013 Rise Set
Actual Time 7:16 AM EDT 7:36 PM EDT
Civil Twilight 6:53 AM EDT 7:59 PM EDT
Nautical Twilight 6:26 AM EDT 8:26 PM EDT
Astronomical Twilight 5:58 AM EDT 8:53 PM EDT
Moon 9:11 PM EDT (3/28) 7:54 AM EDT (3/28)
Length of Visible Light 13h 06m
Length of Day
12h 19m
Full, 98% of the Moon is Illuminated
Mar 28
Full
Apr 3
Last Quarter
Apr 10
New
Apr 18
First Quarter
Apr 25
Full

Hourly Weather History & Observations

Time (EDT) Temp. Dew Point Humidity Pressure Visibility Wind Dir Wind Speed Gust Speed Precip Events Conditions
12:53 AM 55.0 °F 44.1 °F 67% 30.24 in 10.0 mi North 3.5 mph - N/A   Clear
1:53 AM 54.0 °F 43.0 °F 66% 30.23 in 10.0 mi North 4.6 mph - N/A   Clear
2:53 AM 54.0 °F 44.1 °F 69% 30.23 in 10.0 mi North 6.9 mph - N/A   Clear
3:53 AM 53.1 °F 42.1 °F 66% 30.22 in 10.0 mi North 6.9 mph - N/A   Clear
4:53 AM 53.1 °F 42.1 °F 66% 30.21 in 10.0 mi NNW 4.6 mph - N/A   Clear
5:53 AM 51.1 °F 43.0 °F 74% 30.22 in 10.0 mi NNW 6.9 mph - N/A   Clear
6:53 AM 51.1 °F 44.1 °F 77% 30.23 in 10.0 mi NNW 8.1 mph - N/A   Clear
7:53 AM 52.0 °F 45.0 °F 77% 30.24 in 10.0 mi NNW 6.9 mph - N/A   Clear
8:53 AM 57.9 °F 44.1 °F 60% 30.25 in 10.0 mi North 8.1 mph - N/A   Clear
9:53 AM 64.0 °F 43.0 °F 46% 30.27 in 10.0 mi North 9.2 mph - N/A   Clear
10:53 AM 68.0 °F 44.1 °F 42% 30.29 in 10.0 mi NNW 10.4 mph - N/A   Clear
11:53 AM 69.1 °F 43.0 °F 39% 30.29 in 10.0 mi NW 5.8 mph - N/A   Clear
12:53 PM 71.1 °F 39.0 °F 31% 30.27 in 10.0 mi NNW 6.9 mph - N/A   Clear
1:53 PM 73.9 °F 36.0 °F 25% 30.25 in 10.0 mi NNW 5.8 mph - N/A   Clear
2:53 PM 73.0 °F 33.1 °F 23% 30.22 in 10.0 mi Variable 3.5 mph - N/A   Clear
3:53 PM 73.0 °F 43.0 °F 34% 30.20 in 10.0 mi East 11.5 mph 16.1 mph N/A   Clear
4:53 PM 73.0 °F 43.0 °F 34% 30.19 in 10.0 mi NNE 12.7 mph - N/A   Clear
5:53 PM 71.1 °F 43.0 °F 36% 30.19 in 10.0 mi ENE 15.0 mph - N/A   Clear
6:53 PM 69.1 °F 45.0 °F 42% 30.21 in 10.0 mi ENE 13.8 mph - N/A   Clear
7:53 PM 66.0 °F 45.0 °F 47% 30.23 in 10.0 mi NE 8.1 mph - N/A   Clear
8:53 PM 64.9 °F 42.1 °F 43% 30.25 in 10.0 mi NE 8.1 mph - N/A   Clear
9:53 PM 63.0 °F 39.9 °F 43% 30.27 in 10.0 mi North 3.5 mph - N/A   Clear
10:53 PM 60.1 °F 37.9 °F 44% 30.28 in 10.0 mi North 4.6 mph - N/A   Clear
11:53 PM 59.0 °F 37.9 °F 46% 30.28 in 10.0 mi North 5.8 mph - N/A   Clear